Weather in Ust-Cilma

Russia / Komi Republic     65°26′26″N   52°09′16″E
temp.,
°C
wind,
m/s
gust,
m/s
humid.,
%
clouds,
%
prec.,
mm/h
press.,
hPa
HPBL,
m
2 march, tue
tue200:00−1ssw1299100 0.4 98897
03:00−2s2498100 0.5 988162
06:00−3s1298100 1.6 98663
09:00−2s1198100 3.0 986137
12:00−1w129697 0.3 987295
15:00−1w239697 0.4 988255
18:00−3nw3796100 0.4 988297
21:00−6wnw269799 0.6 989194
3 march, wed
wed300:00−10sw229886 0.0 98821
03:00−11s229790 0.1 98827
06:00−9s229795 0.3 98773
09:00−6sw149696 0.6 987213
12:00−5w128995 0.1 987480
15:00−7wnw249497 0.3 988320
18:00−13w239770 0.0 98962
21:00−13wnw229781 0.1 98944
4 march, thu
thu400:00−13nnw269698 0.1 989188
03:00−14nw259797 0.3 989159
06:00−15nw239794 0.2 989109
09:00−13nnw249594 0.4 989231
12:00−10n2594100 0.4 990426
15:00−10n3794100 0.6 992422
18:00−14n4894100 0.3 993364
21:00−18n3796100 0.4 995300
5 march, fri
fri500:00−21n3896100 0.1 996283
03:00−24n2799100 0.1 997194
06:00−25nnw2699100 0.0 999176
09:00−22n2598100 0.0 1000252
12:00−19nnw2495100 0.1 1001366
15:00−18nnw2493100 0.1 1003440
18:00−20n1299100 0.1 100435
21:00−21n1299100 0.4 100521
6 march, sat
sat600:00−22nnw1199100 0.1 100520
03:00−24nw1299100 0.2 100623
06:00−25wnw119993 0.1 100619
09:00−23wnw129795 0.1 1006177
12:00−21w129199 0.0 1006424
15:00−21wsw1292100 0.1 1006442
18:00−24ssw119799 0.0 100520
21:00−27sse119880 0.0 100519